Terminal Aerodrome Forecast
Issued by NWS Atlanta, GA

Home | Current Version | Previous Version | Text Only | Print | Product List | Glossary On
Versions: 1 2 3 4 5 6 7 8 9 10 11 12 13 14 15
000
FTUS42 KFFC 220520
TAFMCN
TAF
KMCN 220520Z 2206/2306 00000KT P6SM FEW250
     FM220900 07003KT 6SM BR FEW025
      TEMPO 2209/2213 4SM BR
     FM221500 08007KT P6SM SCT035
     FM222000 08008KT P6SM BKN035
     FM230000 08007KT P6SM BKN030
     FM230400 08006KT P6SM OVC018=

USA.gov is the U.S. government's official web portal to all federal, state and local government web resources and services.